[[{"header":{"parameterUnit":"m.s-1","parameterCategory":1,"la1":30.2991,"la2":30.254,"lo1":-89.0895,"lo2":-89.0444,"dy":0.0017,"dx":0.0017,"nx":28,"ny":28,"refTime":"2024-08-28T21:00:00:Z","depth":0,"parameterNumber":2,"parameterNumberName":"U-component_of_WINDS"},"data":[0,0,0,0,0,0,0,0,0,0,0,0,0,0,0,0,0,0,0,0,0,0,0,0,0,0,0,0,0,0,0,0,0,0,0,0,0,0,0,0,0,0,0,0,0,0,0,0,0,0,0,0,0,0,0,0,0,0,-5.8505,-5.8504,0,-5.8451,-5.8451,-5.845,-5.8327,-5.8324,-5.8322,-5.8319,-5.8266,-5.8266,-5.8267,0,0,0,0,0,0,0,0,0,0,0,0,0,-5.8504,-5.8505,-5.8505,-5.8504,-5.8504,-5.8451,-5.8451,-5.845,-5.8327,-5.8324,-5.8321,-5.8318,-5.8265,-5.8266,-5.8267,0,0,0,0,0,0,0,0,0,0,0,0,0,-5.8483,-5.8505,-5.8505,-5.8436,-5.8429,-5.8452,-5.8451,-5.845,-5.8328,-5.8324,-5.832,-5.8317,-5.8265,-5.8266,-5.8268,-5.8353,0,0,-5.8272,-5.8273,0,0,0,0,0,0,0,0,-5.8484,-5.8483,-5.8447,-5.8441,-5.8433,-5.8392,-5.843,-5.8417,-5.8329,-5.8367,-5.8319,-5.8315,-5.8311,-5.8308,-5.8306,-5.835,-5.8348,-5.8272,-5.8273,-5.8274,-5.8274,0,0,0,0,0,0,0,-5.8486,-5.8485,-5.8484,-5.8446,-5.8438,-5.8409,-5.8402,-5.8427,-5.8361,-5.8363,-5.8354,-5.8349,-5.8306,-5.8305,-5.8304,-5.8347,-5.8272,-5.8273,-5.8274,-5.8275,-5.8459,-5.8463,0,0,0,0,0,0,-5.8497,-5.8487,-5.8485,-5.8482,-5.845,-5.8412,-5.8404,-5.8409,-5.836,-5.8349,-5.8353,-5.8344,-5.8305,-5.8303,-5.8302,-5.8397,-5.8273,-5.8275,-5.8276,-5.8455,-5.846,-5.8465,0,0,0,0,0,0,-5.8497,-5.8498,-5.8487,-5.8482,-5.8478,-5.8416,-5.8423,-5.841,-5.8409,-5.8352,-5.834,-5.8363,-5.8302,-5.83,-5.8341,-5.8394,-5.8275,-5.8277,-5.8451,-5.8457,-5.8462,-5.859,0,0,0,0,0,0,-5.8498,-5.8499,-5.8529,-5.8484,-5.8479,-5.8527,-5.8426,-5.8412,-5.8411,-5.8399,-5.8359,-5.8349,-5.8299,-5.834,-5.8343,-5.8393,-5.8278,-5.8445,-5.8453,-5.846,-5.858,-5.8599,-5.8616,0,0,0,0,0,-5.8498,-5.8567,-5.8532,-5.8532,-5.8516,-5.853,-5.8527,-5.8468,-5.8416,-5.8447,-5.8411,-5.835,-5.8389,-5.8345,-5.8347,-5.8399,-5.8442,-5.8451,-5.846,-5.8572,-5.8596,-5.8615,0,0,0,0,0,0,-5.862,-5.856,-5.8519,-5.8576,-5.8559,-5.8509,-5.8545,-5.8494,-5.8492,-5.848,-5.8408,-5.84,-5.8451,-5.843,-5.8382,-5.848,-5.8406,-5.8416,-5.849,-5.8512,-5.8529,-5.8531,-5.8279,0,0,0,0,0,-5.8654,-5.867,-5.8617,-5.8672,-5.8666,-5.8608,-5.8612,-5.8568,-5.8547,-5.854,-5.8506,-5.849,-5.8498,-5.8505,-5.8509,-5.8579,-5.8568,-5.8616,-5.8634,-5.8649,-5.8657,-5.8692,-5.8712,-5.8495,-5.8495,-5.8494,0,0,-5.8723,-5.8692,-5.8706,-5.8695,-5.8677,-5.8696,-5.8602,-5.8626,-5.8639,-5.8543,-5.8579,-5.8556,-5.8532,-5.8588,-5.8611,-5.8572,-5.8716,-5.8661,-5.8673,-5.8672,-5.8703,-5.8724,-5.8742,-5.8501,-5.85,-5.8499,0,0,-5.8857,-5.8837,-5.8879,-5.8864,-5.8838,-5.88,-5.8811,-5.877,-5.875,-5.8786,-5.8715,-5.8731,-5.8747,-5.8733,-5.8728,-5.8863,-5.8806,-5.8867,-5.8957,-5.8992,-5.9009,-5.9024,-5.907,-5.9088,-5.8877,-5.8877,-5.8877,0,-5.8945,-5.8969,-5.8908,-5.8936,-5.8933,-5.885,-5.8893,-5.8882,-5.8859,-5.886,-5.8818,-5.8837,-5.8816,-5.8867,-5.89,-5.89,-5.891,-5.8868,-5.9012,-5.9026,-5.9039,-5.9082,-5.91,-5.8884,-5.8883,-5.8883,-5.8882,0,-5.9079,-5.9098,-5.9136,-5.9116,-5.9119,-5.9155,-5.9099,-5.911,-5.9068,-5.9035,-5.9074,-5.9046,-5.9043,-5.9054,-5.9013,-5.91,-5.9076,-5.9025,-5.8947,-5.9068,-5.9107,-5.9123,-5.8894,-5.8892,-5.889,-5.8888,0,0,-5.9282,-5.9231,-5.9246,-5.9236,-5.9204,-5.9218,-5.9252,-5.925,-5.9259,-5.9249,-5.9275,-5.9293,-5.9245,-5.924,-5.9198,-5.9229,-5.9336,-5.9173,-5.9171,-5.9201,-5.9429,-5.9465,-5.9485,-5.9301,-5.9304,-5.9307,-5.943,0,-5.9405,-5.9457,-5.9405,-5.9468,-5.9485,-5.9409,-5.9438,-5.9423,-5.9395,-5.9406,-5.9375,-5.9387,-5.9325,-5.9321,-5.935,-5.9317,-5.938,-5.9308,-5.9323,-5.9324,-5.9326,-5.9506,-5.9544,-5.9661,-5.9445,-5.9448,-5.945,0,-5.9554,-5.955,-5.9615,-5.9581,-5.9586,-5.9613,-5.9608,-5.962,-5.9602,-5.9579,-5.9576,-5.9526,-5.9557,-5.9487,-5.953,-5.9482,-5.9486,-5.9472,-5.9475,-5.947,-5.9391,-5.9502,-5.9697,-5.9714,-5.9474,-5.9472,-5.947,0,-5.9692,-5.9704,-5.9744,-5.9739,-5.9701,-5.9722,-5.9707,-5.9685,-5.9688,-5.9686,-5.9686,-5.9688,-5.9688,-5.9691,-5.9642,-5.9596,-5.9691,-5.9616,-5.9672,-5.9673,-5.969,-5.9689,-5.9885,-5.9702,-5.9701,-5.9701,-5.9701,0,-5.9832,-5.9874,-5.9806,-5.983,-5.9876,-5.9818,-5.9865,-5.9843,-5.9825,-5.9844,-5.9781,-5.9801,-5.9738,-5.9752,-5.9716,-5.9756,-5.9757,-5.9739,-5.9728,-5.9742,-5.9744,-5.974,-5.9729,-5.9706,-5.9705,-5.9704,-5.9703,0,-5.9991,-5.9947,-5.9986,-5.9948,-5.994,-5.9975,-5.9942,-5.9964,-5.9934,-5.996,-5.9963,-5.9915,-5.9928,-5.9882,-5.9888,-5.9864,-5.9922,-5.99,-5.9928,-5.9919,-5.9976,-5.997,-6.0172,-6.0195,-6.0001,-6.0003,-6.0005,0,-6.008,-6.0111,-6.0077,-6.0086,-6.0074,-6.0089,-6.0092,-6.0039,-6.0044,-6.0029,-6.0052,-6.0061,-6.0063,-6.0089,-6.0055,-6.006,-6.0035,-6.0106,-6.0034,-6.0048,-6.0032,-6.0029,-6.0031,-6.0119,-6.0121,-6.0123,-6.0125,0,-6.0244,-6.0221,-6.0228,-6.0228,-6.0234,-6.0232,-6.0225,-6.0236,-6.0179,-6.0189,-6.0202,-6.0205,-6.0212,-6.022,-6.0219,-6.0204,-6.0155,-6.0149,-6.0161,-6.0173,-6.0186,-6.0177,-5.9963,-6.0142,-6.0141,-6.0139,-6.0138,-6.0138,-6.0368,-6.0391,-6.0372,-6.0382,-6.0372,-6.0368,-6.0387,-6.036,-6.037,-6.037,-6.034,-6.0359,-6.0343,-6.0336,-6.0327,-6.0342,-6.0309,-6.0328,-6.0332,-6.0336,-6.0344,-6.0189,-6.0342,-6.0342,-6.0341,-6.0341,-6.034,0,-6.0524,-6.0509,-6.052,-6.0513,-6.0522,-6.0477,-6.0469,-6.0479,-6.0496,-6.0486,-6.0491,-6.0507,-6.0517,-6.0486,-6.0491,-6.0509,-6.0487,-6.0512,-6.0508,-6.0505,-6.0375,-6.0362,-6.053,-6.053,-6.053,-6.053,-6.053,-6.053,-6.0606,-6.0644,-6.0621,-6.0654,-6.0638,-6.0656,-6.0655,-6.0652,-6.0643,-6.0664,-6.0671,-6.0652,-6.0634,-6.0638,-6.0645,-6.0636,-6.0639,-6.0672,-6.0655,-6.0533,-6.0514,-6.0496,-6.0483,-6.0674,-6.0674,-6.0782,-6.0783,-6.0784]},{"header":{"parameterUnit":"m.s-1","parameterCategory":1,"la1":30.2991,"la2":30.254,"lo1":-89.0895,"lo2":-89.0444,"dy":0.0017,"dx":0.0017,"nx":28,"ny":28,"refTime":"2024-08-28T21:00:00:Z","depth":0,"parameterNumber":3,"parameterNumberName":"V-component_of_WINDS"},"data":[0,0,0,0,0,0,0,0,0,0,0,0,0,0,0,0,0,0,0,0,0,0,0,0,0,0,0,0,0,0,0,0,0,0,0,0,0,0,0,0,0,0,0,0,0,0,0,0,0,0,0,0,0,0,0,0,0,0,2.6283,2.6284,0,2.6365,2.6366,2.6367,2.6498,2.6501,2.6503,2.6505,2.6585,2.6585,2.6585,0,0,0,0,0,0,0,0,0,0,0,0,0,2.6238,2.6238,2.6283,2.6284,2.6285,2.6365,2.6366,2.6367,2.6498,2.6501,2.6504,2.6506,2.6586,2.6585,2.6585,0,0,0,0,0,0,0,0,0,0,0,0,0,2.6282,2.6238,2.6283,2.636,2.6368,2.6364,2.6366,2.6367,2.6497,2.6501,2.6505,2.6508,2.6586,2.6585,2.6585,2.6512,0,0,2.6585,2.6585,0,0,0,0,0,0,0,0,2.6279,2.6283,2.6348,2.6355,2.6363,2.6425,2.6379,2.6416,2.6496,2.6448,2.6505,2.651,2.6529,2.6534,2.6541,2.6516,2.6519,2.6585,2.6585,2.6585,2.6584,0,0,0,0,0,0,0,2.6276,2.6281,2.6315,2.6348,2.6358,2.639,2.64,2.6387,2.6467,2.6452,2.6462,2.647,2.6534,2.6541,2.6544,2.652,2.6585,2.6585,2.6584,2.6584,2.6439,2.6436,0,0,0,0,0,0,2.6262,2.6277,2.6313,2.6318,2.6329,2.6388,2.6399,2.6402,2.6468,2.6481,2.6467,2.6476,2.6539,2.6544,2.6547,2.6466,2.6585,2.6584,2.6584,2.6443,2.6438,2.6434,0,0,0,0,0,0,2.626,2.6264,2.6309,2.63,2.6308,2.6385,2.6386,2.6401,2.6408,2.6479,2.6493,2.646,2.6542,2.6547,2.652,2.647,2.6584,2.6584,2.6447,2.6442,2.6436,2.6302,0,0,0,0,0,0,2.6259,2.6263,2.6236,2.6299,2.6308,2.6281,2.6383,2.64,2.6408,2.6421,2.6476,2.6488,2.6546,2.652,2.652,2.6472,2.6584,2.6452,2.6445,2.6438,2.6311,2.6292,2.6276,0,0,0,0,0,2.6256,2.6194,2.6234,2.6237,2.6277,2.6278,2.6284,2.6352,2.6404,2.6377,2.6423,2.6486,2.6476,2.6516,2.6517,2.6469,2.6456,2.6447,2.6439,2.6319,2.6296,2.6277,0,0,0,0,0,0,2.6122,2.6204,2.6249,2.6205,2.6234,2.63,2.6269,2.6326,2.634,2.6351,2.6434,2.6445,2.6407,2.6436,2.6478,2.6401,2.6476,2.6467,2.6384,2.6363,2.6346,2.634,2.6584,0,0,0,0,0,2.6087,2.6083,2.6154,2.6108,2.6121,2.6192,2.6195,2.6245,2.6278,2.6291,2.6334,2.6362,2.6366,2.6366,2.6373,2.6316,2.633,2.6284,2.6266,2.6252,2.6243,2.6215,2.6196,2.6407,2.6407,2.6407,0,0,2.6015,2.606,2.6051,2.6082,2.6111,2.6103,2.6201,2.6189,2.6184,2.6289,2.6266,2.6298,2.6336,2.6293,2.6277,2.6316,2.6188,2.6241,2.6229,2.6228,2.6205,2.6184,2.6167,2.6401,2.6402,2.6403,0,0,2.5881,2.5914,2.588,2.5906,2.5948,2.5997,2.5988,2.6046,2.6072,2.6051,2.613,2.6125,2.6129,2.6152,2.6164,2.6039,2.6098,2.6039,2.5948,2.592,2.5903,2.5889,2.5844,2.5827,2.603,2.603,2.603,0,2.5786,2.5778,2.5854,2.5837,2.5848,2.5945,2.591,2.5932,2.5973,2.5978,2.6022,2.603,2.6061,2.6026,2.5995,2.6002,2.5995,2.6033,2.59,2.5886,2.5874,2.5832,2.5815,2.6022,2.6023,2.6024,2.6025,0,2.5659,2.5653,2.562,2.5659,2.5667,2.5641,2.5712,2.571,2.576,2.5803,2.578,2.5822,2.5839,2.5835,2.5883,2.5806,2.5829,2.5885,2.5961,2.5845,2.5807,2.5791,2.6012,2.6014,2.6017,2.6018,0,0,2.5441,2.5524,2.551,2.5529,2.5583,2.5579,2.5557,2.5576,2.5572,2.5598,2.5581,2.5583,2.5635,2.5649,2.5701,2.5676,2.5574,2.5735,2.5737,2.5703,2.5492,2.5449,2.5429,2.5614,2.5611,2.5609,2.5488,0,2.5317,2.5286,2.5354,2.5306,2.53,2.5392,2.5373,2.5403,2.5443,2.5444,2.5488,2.5488,2.5557,2.5566,2.5546,2.559,2.5532,2.56,2.5598,2.5597,2.5586,2.541,2.5365,2.5249,2.5474,2.5472,2.547,0,2.5168,2.5187,2.5139,2.5196,2.5196,2.5178,2.5201,2.52,2.5237,2.5267,2.5283,2.5344,2.5326,2.54,2.5376,2.5421,2.5424,2.5446,2.5443,2.5445,2.5526,2.5406,2.5214,2.5196,2.5447,2.5449,2.5451,0,2.5014,2.5027,2.5,2.5014,2.508,2.5065,2.5091,2.5132,2.5138,2.5157,2.5163,2.5179,2.5187,2.5198,2.5262,2.5309,2.523,2.5309,2.5254,2.5252,2.5233,2.5233,2.5038,2.5235,2.5236,2.5236,2.5236,0,2.4868,2.4834,2.4932,2.4915,2.488,2.4959,2.4922,2.4957,2.4992,2.4983,2.5063,2.5053,2.5138,2.5137,2.5186,2.5159,2.5162,2.5186,2.5199,2.5179,2.5175,2.5182,2.5191,2.5231,2.5232,2.5233,2.5234,0,2.469,2.4754,2.473,2.4795,2.481,2.4782,2.4837,2.4824,2.4869,2.4857,2.4858,2.4929,2.4932,2.4996,2.5013,2.5046,2.4998,2.5027,2.4986,2.4995,2.4937,2.4941,2.4738,2.4715,2.4927,2.4925,2.4923,0,2.4592,2.4569,2.4631,2.4632,2.4655,2.4654,2.4662,2.4738,2.4742,2.4782,2.4764,2.4773,2.4785,2.4785,2.4837,2.485,2.488,2.4808,2.4882,2.4862,2.4878,2.4879,2.4877,2.4791,2.4789,2.4787,2.4785,0,2.4413,2.4446,2.4454,2.4473,2.448,2.4499,2.4522,2.4518,2.4601,2.4602,2.4606,2.4615,2.4633,2.4641,2.4664,2.4691,2.4751,2.4761,2.4749,2.4727,2.4705,2.4716,2.4943,2.4765,2.4767,2.4769,2.477,2.477,2.4272,2.4256,2.4297,2.4304,2.433,2.435,2.4341,2.4385,2.4391,2.4411,2.4456,2.4453,2.449,2.4527,2.4548,2.4547,2.4584,2.4566,2.4562,2.4556,2.4545,2.4705,2.4551,2.4552,2.4553,2.4553,2.4554,0,2.4097,2.4128,2.4134,2.4165,2.4169,2.4227,2.4256,2.4256,2.4253,2.4283,2.4294,2.4298,2.4307,2.436,2.4375,2.4363,2.4391,2.4364,2.4366,2.4371,2.4511,2.452,2.4341,2.4341,2.4342,2.4342,2.4342,2.4342,2.4006,2.3982,2.4019,2.4008,2.404,2.4039,2.405,2.4069,2.4094,2.4096,2.4104,2.4139,2.4178,2.4196,2.4206,2.4222,2.4223,2.4186,2.4211,2.4341,2.4361,2.4381,2.439,2.4186,2.4186,2.4071,2.407,2.4069]}]]